Weather in Zhityevo

Russia / Vologda Oblast     59°54′22″N   41°06′20″E
temp.,
°C
wind,
m/s
gust,
m/s
humid.,
%
clouds,
%
prec.,
mm/h
press.,
hPa
HPBL,
m
4 december, sat
sat400:00−8ene41195100 1.6 1000416
03:00−8ene51195100 3.7 997407
06:00−9ene51294100 3.1 995451
09:00−10ne4995100 6.2 996491
12:00−12nne4895100 1.9 998464
15:00−13n3895100 2.9 1001563
18:00−15n4892100 0.3 1005535
21:00−16n3892100 0.3 1009377
5 december, sun
sun500:00−22nw2210094 0.0 101226
03:00−22nnw2510067 0.0 101562
06:00−25nnw1110043 0.0 101715
09:00−27n1110068 0.0 102011
12:00−20nne14975 0.0 1021121
15:00−24n111005 0.0 10239
18:00−27n1110052 0.0 102510
21:00−28n1110015 0.0 10269
6 december, mon
mon600:00−26n1110079 0.0 102712
03:00−25nne1110092 0.0 10279
06:00−26ne11100100 0.0 10289
09:00−26e11100100 0.0 103010
12:00−18e269865 0.0 1029124
15:00−20e1110052 0.0 103010
18:00−21e279916 0.0 1031109
21:00−21ese29965 0.0 1030143
7 december, tue
tue700:00−21e310955 0.0 1030172
03:00−20ese31095100 0.0 1029209
06:00−16ese31195100 0.0 1027278
09:00−13ese41395100 0.4 1026375
12:00−10ese51493100 0.5 1024462
15:00−8ese61694100 1.4 1021673
18:00−8ese61594100 2.1 1019810
21:00−7ese51394100 3.5 1017777
8 december, wed
wed800:00−7ese51394100 1.0 1015673
03:00−7ese41194100 1.8 1014536
06:00−7ese3996100 0.7 1012404
09:00−8ese2696100 1.2 1013193
12:00−7ese129796 0.3 101485
15:00−10wsw119899 0.4 101511
18:00−11wsw279871 0.1 1016132
21:00−16wsw2510099 0.1 101979